STARLINK-32760 (62568 NORAD) Tracking and Keplerian Element Data

This shows tracking and keplerian element data for the satellite.

Feedback or suggestion? Click here.




ElementValue
Catalog62568
NameSTARLINK-32760
Epoch Orbit5269
Epoch Day354.13248004
Epoch Year2025
RAAN22.0103
Inclination42.9976
Eccentricity9.02E-05
Argument of Perigee163.9503
Mean Anonmoly196.1377
Mean Motion15.27594689
Decay Rate0.00021148
L11 62568U 25006Q 25354.13248004 .00021148 00000+0 77548-3 0 9990
L22 62568 42.9976 22.0103 0000902 163.9503 196.1377 15.27594689 52694



Live tracking and technical data element details for STARLINK-32760 (NORAD 62568). STARLINK-32760 can be tracked NOW for your location showing map with azimuth and elevation plus other details from your city location.







IsCatalogInMostPopularTable: catalog: 62568, numindb: 80
Update: records affected: 1



GetName: 62568 STARLINK-32760

Hit Count: updated at: Wed, 11 Feb 2026 15:12:25 GMT